Weather in Susolovka

Russia / Vologda Oblast     60°48′59″N   47°03′04″E
temp.,
°C
wind,
m/s
gust,
m/s
humid.,
%
clouds,
%
prec.,
mm/h
press.,
hPa
HPBL,
m
19 september, sun
sun1900:00+1nnw31192100 0.0 1025408
03:000nnw399798 0.0 1026369
06:000nnw31097100 0.0 1026400
09:00+4n5863100 0.0 10271276
12:00+5n4758100 0.0 10271410
15:00+4nnw4761100 0.0 10281358
18:00+3nnw3867100 0.0 1028551
21:00+3n3872100 0.0 1029514
20 september, mon
mon2000:00+2nnw3775100 0.0 1030294
03:00+2n277794 0.0 1031283
06:00−2nne28945 0.0 1032176
09:00+4ne356252 0.0 1032975
12:00+7ne345134 0.0 10321243
15:00+8ne34485 0.0 10311218
18:00+3ne22755 0.0 103223
21:00+1ene24865 0.0 103270
21 september, tue
tue2100:000e24923 0.0 103385
03:00−1e24955 0.0 103273
06:00−1e259615 0.0 1032109
09:00+5e35685 0.0 1031445
12:00+9e34545 0.0 1030939
15:00+10e34525 0.0 1028994
18:00+4e23805 0.0 102846
21:00+2e26890 0.0 1029109
22 september, wed
wed2200:000e24930 0.0 102986
03:00−1e24955 0.0 102985
06:00−1e25955 0.0 1029107
09:00+6e36640 0.0 1029393
12:00+10ese46533 0.0 1028859
15:00+11ese46560 0.0 10271010
18:00+6e24845 0.0 102858
21:00+4e38950 0.0 1028165
23 september, thu
thu2300:00+3e28965 0.0 1028149
03:00+2ese27976 0.0 1028137
06:00+2ese289814 0.0 1027164
09:00+8ese48760 0.0 1026409
12:00+12se47573 0.0 1025880
15:00+12se4862100 0.0 1023891
18:00+9se41076100 0.1 1023528
21:00+8se398299 0.1 1022391